C/2024 M1 ( ATLAS )

Japanese version
Home page
Updated on September 4, 2024

---------------------------------------------------------------------

* Profile

Discovery Date June 29, 2024
Magnitude 17.8 mag
Discoverer Asteroid Terrestrial-Impact Last Alert System (ATLAS) search program

* Orbital Elements

Epoch 2024 Mar. 31.0 TT = JDT 2460400.5                                         
T 2024 Nov. 20.03882 TT                                 Rudenko                 
q   1.7034779            (2000.0)            P               Q                  
n   0.00605275     Peri.  345.60102     +0.29853878     -0.20460995             
a  29.8195417      Node    76.21495     +0.94276116     -0.08883721             
e   0.9428738      Incl.   73.70992     +0.14857990     +0.97480394             
P 163                                                                           
>From 120 observations 2022 May 10-2024 July 19, mean residual 0".2.             

* Finding Charts

* Magnitudes Graph

        H = 13.0  G = 0.15                [    ,-157]  (             - 2024 June 16)
        m1 = 12.0 + 5 log d + 10.0 log r  [-157,    ]  (2024 June 16 -             )

---------------------------------------------------------------------

The orbital elements are published on M.P.E.C. 2024-O16.
The charts are made with StellaNavigator Ver.11 (AstroArts).
The magnitudes graphs are made with Comet for Windows.

---------------------------------------------------------------------

Copyright(C) Seiichi Yoshida (comet@aerith.net). All rights reserved.